User: anonymous   Login
Location: El Limón
(10.3059°N, 67.6321°W)
Time: 05:30:22
(UTC+00:00)
Language:

Cosmos 2056 Rocket - Orbit

View from above orbital plane
View from above orbital plane
View from above satellite
View from above satellite

Ground track
Ground track

The orbit data is extracted from the following two-line orbital elements,

1 20433U 90004B   24173.60194029  .00000424  00000-0  15098-3 0  9999
2 20433  74.0369 332.3694 0040758 197.9298 233.0873 14.36801225802640
Epoch (UTC): 21 June 2024 14:26:47
Eccentricity: 0.0040758
inclination: 74.0369°
perigee height: 740 km
apogee height: 798 km
right ascension of ascending node: 332.3694°
argument of perigee: 197.9298°
revolutions per day: 14.36801225
mean anomaly at epoch: 233.0873°
orbit number at epoch: 80264

The dashed part of the orbit path shows where the satellite is in the earth's shadow,  

DLR